Location: Zagreb
(45.8000°N, 16.0000°E)
Time: 00:56:14
(UTC+01:00)

Transit 2A Rocket - Pass Details

Date: 05 October 2020
Orbit: 586 x 916 km, 66.7° (Epoch: 28 October)

Event Time Altitude Azimuth Distance (km) Brightness Sun altitude
Rises 18:54:13 0° 279° (W) 3,553 10.6 -5.4°
Reaches altitude 10° 18:58:08 10° 303° (WNW) 2,600 8.7 -6.1°
Maximum altitude 19:01:17 14° 335° (NNW) 2,277 7.8 -6.6°
Drops below altitude 10° 19:04:24 10° 7° (N) 2,544 7.6 -7.2°
Sets 19:08:11 0° 31° (NNE) 3,427 8.1 -7.8°
